Weather Roundup
Issued by NWS Springfield, MO

Home | Current Version | Previous Version | Text Only | Print | Product List | Glossary On
Versions: 1 2 3 4 5 6 7 8 9 10 11 12 13 14 15 16 17 18 19 20 21 22 23 24 25 26 27 28 29 30 31 32 33 34 35 36 37 38 39 40 41 42 43 44 45 46 47 48 49 50
000
NZUS99 KSGF 301107
HRRSGF

HOURLY WEATHER
NATIONAL WEATHER SERVICE SPRINGFIELD MO
600 AM CDT THU MAR 30 2017

......SGF CWA......

CITY           SKY/WX    TMP DP  RH WIND       PRES   REMARKS
SPRINGFIELD    PTCLDY    47  43  86 SW9       29.60S
JOPLIN         CLOUDY    47  42  83 S20       29.61S
WEST PLAINS    CLOUDY    60  58  92 S7        29.61F
ROLLA          CLOUDY    58  57  97 SE7       29.57F
OSAGE BEACH    CLEAR     55  55 100 S5        29.57F
BRANSON        CLOUDY    50  43  76 SW10G16   29.64R

......SURROUNDING SGF CWA......

CITY           SKY/WX    TMP DP  RH WIND       PRES   REMARKS
CHANUTE        CLOUDY    46  44  93 SW14      29.55F
PARSONS        LGT RAIN  46  45  96 SW10      29.59S FOG
COFFEYVILLE    LGT RAIN  46  44  93 SW14      29.60F FOG
EMPORIA        LGT RAIN  45  45 100 W13       29.51F
GROVE OK       CLOUDY    50  43  76 SW12      29.65S
ROGERS AR      CLOUDY    46  40  79 SW10G23   29.66R
SILOAM SPRINGS CLOUDY    46  37  71 SW10      29.66S
HARRISON AR    MOCLDY    52  48  86 SW7       29.62F
NEAR YELLVILLE MOCLDY    57  54  88 SW3       29.60R

......KANSAS AND MISSOURI......

CITY           SKY/WX    TMP DP  RH WIND       PRES   REMARKS
KANSAS CTY INT CLOUDY    49  47  93 S8        29.55S
DOWNTOWN KC    CLOUDY    50  45  83 S8        29.56R
COLUMBIA       CLOUDY    58  58 100 S3        29.57R FOG
SEDALIA        MOCLDY    52  48  86 SW12      29.58S
ST JOSEPH      CLOUDY    50  49  96 E12       29.56S
ST LOUIS       CLOUDY    61  57  87 CALM      29.61R
SPIRIT OF STL  LGT RAIN  61  59  93 S6        29.59S
KIRKSVILLE     CLOUDY    48  32  53 NE14      29.59F HAZE
WICHITA        DRIZZLE   42  42 100 NW21      29.63F
TOPEKA         LGT RAIN  49  48  97 SE3       29.54S
OLATHE         CLOUDY    47  45  93 S12       29.55S

......TENNESSEE......

CITY           SKY/WX    TMP DP  RH WIND       PRES   REMARKS
MEMPHIS        CLOUDY    66  57  72 S14       29.69F
NASHVILLE      CLOUDY    69  57  65 S14       29.83S

......ARKANSAS.......

CITY           SKY/WX    TMP DP  RH WIND       PRES   REMARKS
FAYETTEVILLE   CLOUDY    46  41  82 SW12G17   29.66S
FT SMITH       CLOUDY    51  40  65 W16       29.71R
LITTLE ROCK    MOCLDY    61  61 100 S12       29.67S

......OKLAHOMA.......

CITY           SKY/WX    TMP DP  RH WIND       PRES   REMARKS
TULSA          CLOUDY    48  43  82 W17       29.66S
PONCA CITY     CLOUDY    44  40  85 W10G18    29.67S
MCALESTER      CLOUDY    50  39  66 W10       29.74S
OKLAHOMA CITY  CLOUDY    47  39  74 NW15G24   29.74S

......IOWA............

CITY           SKY/WX    TMP DP  RH WIND       PRES   REMARKS
DES MOINES     CLOUDY    43  40  89 NE13G21   29.66S
QUAD CITIES    TSTM      45  41  86 E18G28    29.69F

......ILLINOIS........

CITY           SKY/WX    TMP DP  RH WIND       PRES   REMARKS
QUINCY         LGT RAIN  52  51  97 E8        29.60S FOG
CHICAGO        RAIN      42  39  89 E17       29.85F FOG



USA.gov is the U.S. government's official web portal to all federal, state and local government web resources and services.